Home > Weather > Abeokuta > Past weeks

Flag for Nigeria Past Weather in Abeokuta, Nigeria — Yesterday and Last 2 Weeks

Now
86 °F

Partly sunny.


Feels Like: 99 °F
Forecast: 75 / 89 °F
Wind: 3 mph from South

Location: Lagos / Ikeja

Current Time: May 27, 2016 at 11:25:01 AM

Latest Report: May 27, 2016 at 10:00 AM


Visibility: N/A

Pressure: 30.01 "Hg

Humidity: 79%

Dew Point: 79 °F

Location of AbeokutaLocation

Past Weather in Abeokuta — Graph

°F

Abeokuta Temperature Yesterday

Maximum temperature yesterday: 90 °F (at 1:00 PM)
Minimum temperature yesterday: 73 °F (at 6:00 AM)
Average temperature yesterday: 81 °F

High & Low Weather Summary for the Past Weeks

 TemperatureHumidityPressure
High91 °F (May 13, 1:00 PM)100% (May 15, 5:00 PM)30.07 "Hg (May 15, 5:00 PM)
Low72 °F (May 21, 4:00 PM)63% (May 13, 1:00 PM)29.68 "Hg (May 16, 9:00 PM)
Average81 °F87%29.96 "Hg
* Reported May 12 10:00 AM — May 27 10:00 AM, Abeokuta, Weather by CustomWeather, © 2016

Note: Actual official high and low records may vary slightly from our data, if they occured in-between our weather recording intervals... More about our weather records

Advertising

Abeokuta Weather History for the Previous 24 Hours

Scroll right to see more
 ConditionsComfort  
Time TempWeatherWind HumidityBarometerVisibility
10:00 AM
Fri, May 27
86 °FPartly sunny.3 mph79%30.01 "HgN/A
9:00 AM84 °FPartly sunny.6 mph84%30.01 "HgN/A
8:00 AM82 °FPassing clouds.2 mph89%29.98 "Hg5 mi
7:00 AM81 °FScattered clouds.3 mph94%29.95 "Hg5 mi
6:00 AM79 °FPassing clouds.2 mph100%29.95 "Hg5 mi
5:00 AM79 °FPassing clouds.No wind100%29.92 "Hg5 mi
4:00 AM79 °FPassing clouds.2 mph100%29.92 "Hg5 mi
3:00 AM79 °FPassing clouds.2 mph100%29.92 "Hg5 mi
2:00 AM81 °FPassing clouds.2 mph94%29.92 "Hg5 mi
1:00 AM81 °FPassing clouds.2 mph94%29.95 "Hg5 mi
12:00 AM81 °FPassing clouds.2 mph94%29.95 "Hg5 mi
11:00 PM
Thu, May 26
81 °FPassing clouds.No wind94%29.95 "Hg5 mi
10:00 PM81 °FPassing clouds.2 mph89%29.95 "Hg5 mi
9:00 PM81 °FPassing clouds.2 mph89%29.92 "Hg5 mi
8:00 PM82 °FPassing clouds.2 mph84%29.92 "Hg5 mi
7:00 PM82 °FPassing clouds.6 mph84%29.89 "Hg5 mi
6:00 PM84 °FScattered clouds.7 mph79%29.89 "Hg5 mi
5:00 PM86 °FPartly sunny.6 mph75%29.86 "Hg4 mi
4:00 PM88 °FPartly sunny.6 mph70%29.89 "Hg4 mi
3:00 PM88 °FPartly sunny.3 mph70%29.89 "Hg4 mi
2:00 PM90 °FPartly sunny.2 mph67%29.92 "Hg3 mi
1:00 PM90 °FScattered clouds.5 mph71%29.95 "Hg5 mi
12:00 PM88 °FScattered clouds.2 mph70%29.98 "HgN/A
11:00 AM86 °FPassing clouds.No wind79%29.98 "HgN/A
Weather by CustomWeather, © 2016

See weather overviewHow to use our weather pages